Location: Gleizolles
(44.4833°N, 6.7667°E)
Time: 14:22:14
(UTC+00:00)

Vanguard 1 - Pass Details

Date: 04 July 2024
Orbit: 650 x 3826 km, 34.3° (Epoch: 15 July)

Event Time Altitude Azimuth Distance (km) Brightness Sun altitude
Rises 09:37:44 0° 255° (WSW) 6,919 14.2 57.3°
Reaches altitude 10° 09:43:12 10° 251° (WSW) 5,416 13.8 58.1°
Maximum altitude 09:56:30 47° 184° (S) 2,123 12.9 60.1°
Drops below altitude 10° 10:03:52 10° 112° (ESE) 3,077 13.2 61.1°
Sets 10:06:08 0° 106° (ESE) 3,778 13.4 61.4°
